Flag for Australia Weather past 2 weeks in Melbourne, Victoria, Australia

Now
59 °F

Broken clouds.


Feels Like: 56 °F
Forecast: 49 / 65 °F
Wind: 15 mph from Southwest

Location: Melbourne Airport

Current Time: Oct 2, 2014 at 1:16:56 PM

Latest Report: Oct 2, 2014 at 12:30 PM


Visibility: N/A

Pressure: 30.24 "Hg

Humidity: 59%

Dew point: 45 °F

Location of MelbourneLocation

Historic Weather in Melbourne — Graph

°F

Melbourne temperature yesterday

Maximum temperature yesterday: 59 °F (at 12:30 PM)
Minimum temperature yesterday: 43 °F (at 3:00 AM)
Average temperature yesterday: 49 °F

Past Weeks' High & Low Weather Summary

 TemperatureHumidityPressure
High81 °F (Sep 28, 3:30 PM)100% (Sep 21, 3:30 AM)30.45 "Hg (Sep 21, 3:30 AM)
Low39 °F (Sep 22, 2:30 AM)20% (Sep 28, 5:30 PM)29.62 "Hg (Sep 28, 5:00 PM)
Average56 °F66%30.11 "Hg
* Reported Sep 17 12:00 Noon — Oct 2 12:00 Noon, Melbourne, Weather by CustomWeather, © 2014

Note: Actual official high and low records may vary slightly from our data, if they occured in-between our weather recording intervals... More about our weather records

Advertising

Melbourne weather history for previous 24 hours

 ConditionsComfort  
Time TempWeatherWind HumidityBarometerVisibility
12:00 PM
Oct 2
57 °FPartly sunny.16 mph63%30.24 "HgN/A
11:30 AM57 °FBroken clouds.16 mph63%30.24 "HgN/A
11:00 AM57 °FBroken clouds.14 mph63%30.24 "HgN/A
10:30 AM57 °FPartly sunny.17 mph59%30.24 "HgN/A
10:00 AM55 °FOvercast.20 mph63%30.24 "HgN/A
9:30 AM55 °FOvercast.14 mph67%30.24 "HgN/A
9:00 AM55 °FOvercast.12 mph67%30.24 "HgN/A
8:30 AM54 °FPartly sunny.13 mph77%30.24 "HgN/A
8:00 AM52 °FPartly sunny.10 mph82%30.24 "HgN/A
7:30 AM52 °FPartly sunny.8 mph82%30.24 "HgN/A
7:00 AM50 °FSprinkles. Partly sunny.7 mph88%30.24 "HgN/A
6:30 AM50 °FSprinkles. Broken clouds.9 mph88%30.24 "Hg5 mi
6:00 AM50 °FPartly sunny.8 mph88%30.21 "HgN/A
5:30 AM50 °FSprinkles. Partly sunny.7 mph76%30.24 "HgN/A
5:00 AM50 °FPartly sunny.8 mph82%30.21 "HgN/A
4:30 AM50 °FSprinkles. Partly cloudy.14 mph82%30.21 "HgN/A
4:00 AM50 °FSprinkles. Partly cloudy.7 mph76%30.21 "HgN/A
3:30 AM50 °FSprinkles. Partly cloudy.7 mph76%30.21 "HgN/A
3:00 AM48 °FPassing clouds.9 mph76%30.24 "HgN/A
2:30 AM46 °FPassing clouds.8 mph82%30.24 "HgN/A
2:00 AM48 °FPassing clouds.9 mph76%30.24 "HgN/A
1:30 AM48 °FPassing clouds.8 mph82%30.24 "HgN/A
1:00 AM48 °FPassing clouds.8 mph82%30.24 "HgN/A
12:30 AM45 °FPassing clouds.9 mph87%30.27 "HgN/A
12:00 AM45 °FPassing clouds.8 mph81%30.27 "HgN/A
11:30 PM
Oct 1
43 °FPassing clouds.8 mph87%30.27 "HgN/A
11:00 PM45 °FPassing clouds.8 mph81%30.27 "HgN/A
10:30 PM45 °FPassing clouds.8 mph81%30.27 "HgN/A
10:00 PM46 °FPartly cloudy.8 mph82%30.27 "HgN/A
9:30 PM45 °FClear.9 mph81%30.27 "Hg10 mi
9:00 PM46 °FClear.7 mph76%30.27 "Hg10 mi
8:30 PM46 °FPassing clouds.6 mph76%30.27 "HgN/A
8:00 PM48 °FPassing clouds.8 mph71%30.27 "HgN/A
7:30 PM50 °FPassing clouds.9 mph67%30.27 "HgN/A
7:00 PM52 °FPassing clouds.8 mph62%30.24 "HgN/A
6:30 PM52 °FPassing clouds.7 mph72%30.24 "HgN/A
6:00 PM54 °FPassing clouds.8 mph67%30.24 "HgN/A
5:30 PM55 °FPassing clouds.10 mph59%30.24 "HgN/A
5:00 PM55 °FPartly sunny.10 mph59%30.21 "HgN/A
4:30 PM55 °FPartly sunny.16 mph59%30.21 "HgN/A
4:00 PM57 °FPartly sunny.13 mph51%30.21 "HgN/A
3:30 PM57 °FPartly sunny.17 mph51%30.21 "HgN/A
3:00 PM55 °FSprinkles. Partly sunny.15 mph59%30.21 "HgN/A
2:30 PM57 °FPartly sunny.12 mph51%30.21 "HgN/A
2:00 PM57 °FScattered clouds.9 mph55%30.21 "HgN/A
1:00 PM57 °FPartly sunny.16 mph44%30.24 "HgN/A
Weather by CustomWeather, © 2014

See weather overviewHow to use our weather pages